Regional Weather Roundup
Issued by NWS Raleigh/Durham, NC

Home | Current Version | Previous Version | Text Only | Print | Product List | Glossary On
Versions: 1 2 3 4 5 6 7 8 9 10 11 12 13 14 15 16 17 18 19 20 21 22 23 24 25 26 27 28 29 30 31 32 33 34 35 36 37 38 39 40 41 42 43 44 45 46 47 48 49 50
000
ASUS42 KRAH 291310
RWRRAH
NORTH CAROLINA WEATHER ROUNDUP
NATIONAL WEATHER SERVICE RALEIGH NC
900 AM EDT FRI MAY 29 2015

NOTE: "FAIR" INDICATES FEW OR NO CLOUDS BELOW 12,000 FEET WITH NO
SIGNIFICANT WEATHER AND/OR OBSTRUCTIONS TO VISIBILITY.

NCZ001-053-055-056-065-067-291400-
WESTERN NORTH CAROLINA

CITY           SKY/WX    TMP DP  RH WIND       PRES   REMARKS
ASHEVILLE      CLOUDY    66  62  87 S3        30.31R
JEFFERSON      CLOUDY    61  61 100 CALM      30.35R
MORGANTON      CLOUDY    65  65 100 CALM      30.33R FOG
HICKORY        CLOUDY    66  65  96 CALM      30.28R
RUTHERFORDTON  CLOUDY    68  66  92 CALM      30.29R
MOUNT AIRY     MOSUNNY   73  68  84 CALM      30.30R
BOONE          PTSUNNY   58  58 100 CALM      30.36R
$$

NCZ021-022-025-041-071-084-088-291400-
CENTRAL NORTH CAROLINA

CITY           SKY/WX    TMP DP  RH WIND       PRES   REMARKS
CHARLOTTE      CLOUDY    72  63  73 W5        30.27R
GREENSBORO     MOSUNNY   74  67  78 W6        30.25S
WINSTON-SALEM  SUNNY     74  65  73 CALM      30.27S
RALEIGH-DURHAM MOSUNNY   74  66  76 S6        30.26R
FORT BRAGG     MOSUNNY   75  64  69 CALM      30.24S
FAYETTEVILLE   SUNNY     74  64  71 CALM      30.25R
BURLINGTON     CLOUDY    71  65  81 S7        30.26R
LAURINBURG     SUNNY     75  63  66 SE3       30.25R
$$

NCZ011-015-027-028-043-044-047-080-103-291400-
NORTHEASTERN NORTH CAROLINA

CITY           SKY/WX    TMP DP  RH WIND       PRES   REMARKS
ROCKY MT-WILSO MOSUNNY   75  65  70 S3        30.26R
GREENVILLE     SUNNY     75  64  69 CALM      30.27S
WASHINGTON     SUNNY     74  62  66 CALM      30.27R
ELIZABETH CITY SUNNY     75  65  70 SW3       30.26S
MANTEO         SUNNY     75  65  72 NE6       30.26S
CAPE HATTERAS  SUNNY     77  65  66 VRB7      30.25R
$$

NCZ078-087-090-091-093-098-101-291400-
SOUTHEASTERN NORTH CAROLINA

CITY           SKY/WX    TMP DP  RH WIND       PRES   REMARKS
LUMBERTON      SUNNY     76  64  66 CALM      30.24R
GOLDSBORO      PTSUNNY   74  65  72 CALM      30.24R
KINSTON        SUNNY     75  63  64 CALM      30.27R
KENANSVILLE    SUNNY     74  63  69 CALM      30.27R
NEW BERN       SUNNY     76  64  66 N5        30.27R
CHERRY POINT   SUNNY     77  64  64 NE5       30.26R
BEAUFORT       SUNNY     76  63  64 NE7       30.24R
JACKSONVILLE   SUNNY     76  64  66 NE5       30.24R
WILMINGTON     SUNNY     77  66  68 N8        30.23R
$$




USA.gov is the U.S. government's official web portal to all federal, state and local government web resources and services.